• In United Kingdom
  • List of Countries
  • For 7 days
  • Water Temperature
  • Satellite Maps
  • Weather Map
  • Weather Widgets
  • user-avatar
    Login

    Hourly Weather Naru

    Today, 18 September, Tuesday

    Time Temperature Precipitation Wind Pressure Humidity
    00:00 +24°C° 1.8 mm 0 mps 739 mmHg 93%
    01:00 +24°C° 0 mm 0 mps 739 mmHg 93%
    02:00 +26°C° 1.1 mm 1 mps 739 mmHg 94%
    03:00 +26°C° 1.1 mm 1 mps 739 mmHg 94%
    04:00 +26°C° 1.1 mm 1 mps 739 mmHg 94%
    05:00 +26°C° 0.4 mm 1 mps 739 mmHg 94%
    06:00 +26°C° 0.4 mm 1 mps 740 mmHg 94%
    07:00 +26°C° 0 mm 1 mps 740 mmHg 94%
    08:00 +28°C° 0.7 mm 1 mps 740 mmHg 88%
    09:00 +29°C° 0.7 mm 1 mps 740 mmHg 83%
    10:00 +30°C° 0.7 mm 1 mps 740 mmHg 78%
    11:00 +31°C° 0.8 mm 1 mps 740 mmHg 77%
    12:00 +32°C° 0.8 mm 1 mps 740 mmHg 76%
    13:00 +32°C° 0 mm 1 mps 740 mmHg 74%
    14:00 +32°C° 1.2 mm 1 mps 740 mmHg 76%
    15:00 +31°C° 1.2 mm 1 mps 739 mmHg 77%
    16:00 +31°C° 1.2 mm 1 mps 739 mmHg 79%
    17:00 +30°C° 1.1 mm 1 mps 739 mmHg 84%
    18:00 +28°C° 1.1 mm 1 mps 740 mmHg 90%
    19:00 +26°C° 0 mm 1 mps 740 mmHg 95%
    20:00 +26°C° 0.5 mm 1 mps 740 mmHg 96%
    21:00 +26°C° 0.5 mm 1 mps 741 mmHg 96%
    22:00 +26°C° 0.5 mm 1 mps 741 mmHg 96%
    23:00 +24°C° 0.5 mm 0 mps 741 mmHg 96%

    Tomorrow, 19 September, Wednesday

    Time Temperature Precipitation Wind Pressure Humidity
    00:00 +23°C° 0.5 mm 0 mps 742 mmHg 96%
    01:00 +23°C° 0.5 mm 0 mps 742 mmHg 97%
    02:00 +23°C° 0 mm 0 mps 742 mmHg 97%
    03:00 +23°C° 0 mm 0 mps 741 mmHg 97%
    04:00 +23°C° 0 mm 0 mps 741 mmHg 97%
    05:00 +23°C° 0 mm 0 mps 742 mmHg 96%
    06:00 +24°C° 0 mm 0 mps 742 mmHg 95%
    07:00 +24°C° 0 mm 0 mps 742 mmHg 94%
    08:00 +26°C° 0 mm 0 mps 742 mmHg 84%
    09:00 +29°C° 0 mm 0 mps 743 mmHg 74%
    10:00 +31°C° 0 mm 0 mps 743 mmHg 64%
    11:00 +32°C° 0.3 mm 0 mps 742 mmHg 61%
    12:00 +34°C° 0.3 mm 1 mps 742 mmHg 59%
    13:00 +35°C° 0.3 mm 1 mps 741 mmHg 56%
    14:00 +34°C° 0.6 mm 1 mps 740 mmHg 60%
    15:00 +33°C° 0.6 mm 1 mps 740 mmHg 65%
    16:00 +33°C° 0.6 mm 1 mps 739 mmHg 69%
    17:00 +31°C° 0.4 mm 1 mps 740 mmHg 76%
    18:00 +29°C° 0.4 mm 1 mps 740 mmHg 83%
    19:00 +28°C° 0.4 mm 1 mps 740 mmHg 91%
    20:00 +27°C° 0 mm 1 mps 740 mmHg 92%
    21:00 +27°C° 0 mm 1 mps 741 mmHg 93%
    22:00 +26°C° 0 mm 1 mps 741 mmHg 95%
    23:00 +26°C° 0 mm 1 mps 741 mmHg 95%

    Day after tomorrow, 20 September, Thursday

    Time Temperature Precipitation Wind Pressure Humidity
    00:00 +26°C° 0 mm 1 mps 741 mmHg 96%
    01:00 +26°C° 0 mm 1 mps 741 mmHg 97%
    02:00 +25°C° 0 mm 1 mps 741 mmHg 97%
    03:00 +25°C° 0 mm 1 mps 741 mmHg 97%
    04:00 +25°C° 0 mm 1 mps 741 mmHg 97%
    05:00 +26°C° 0 mm 1 mps 741 mmHg 96%
    06:00 +26°C° 0 mm 1 mps 741 mmHg 94%
    07:00 +26°C° 0 mm 1 mps 742 mmHg 92%
    08:00 +29°C° 0 mm 1 mps 742 mmHg 81%
    09:00 +31°C° 0 mm 1 mps 742 mmHg 70%
    10:00 +34°C° 0 mm 2 mps 742 mmHg 60%
    11:00 +35°C° 0 mm 2 mps 742 mmHg 56%
    12:00 +36°C° 0 mm 2 mps 741 mmHg 53%
    13:00 +36°C° 0 mm 2 mps 741 mmHg 50%
    14:00 +36°C° 0 mm 2 mps 740 mmHg 51%
    15:00 +36°C° 0 mm 2 mps 740 mmHg 53%
    16:00 +35°C° 0 mm 2 mps 739 mmHg 54%
    17:00 +32°C° 0 mm 2 mps 739 mmHg 62%
    18:00 +30°C° 0 mm 2 mps 740 mmHg 70%
    19:00 +28°C° 0 mm 2 mps 740 mmHg 78%
    20:00 +27°C° 0 mm 1 mps 740 mmHg 82%
    21:00 +27°C° 0 mm 1 mps 741 mmHg 86%
    22:00 +26°C° 0 mm 1 mps 742 mmHg 90%
    23:00 +26°C° 0 mm 1 mps 741 mmHg 92%

    21 September, Friday

    Time Temperature Precipitation Wind Pressure Humidity
    00:00 +25°C° 0 mm 1 mps 741 mmHg 93%
    01:00 +25°C° 0 mm 1 mps 741 mmHg 95%
    02:00 +25°C° 0 mm 1 mps 741 mmHg 96%
    03:00 +25°C° 0 mm 1 mps 741 mmHg 96%
    04:00 +24°C° 0 mm 1 mps 740 mmHg 96%
    05:00 +25°C° 0 mm 1 mps 741 mmHg 94%
    06:00 +26°C° 0 mm 1 mps 741 mmHg 91%
    07:00 +26°C° 0 mm 1 mps 742 mmHg 89%
    08:00 +29°C° 0 mm 1 mps 742 mmHg 78%
    09:00 +31°C° 0 mm 1 mps 742 mmHg 68%
    10:00 +34°C° 0 mm 1 mps 743 mmHg 57%
    11:00 +34°C° 0.2 mm 1 mps 742 mmHg 55%
    12:00 +35°C° 0.2 mm 1 mps 742 mmHg 53%
    13:00 +37°C° 0.2 mm 2 mps 741 mmHg 51%
    14:00 +36°C° 0.3 mm 2 mps 741 mmHg 55%
    15:00 +35°C° 0.3 mm 2 mps 740 mmHg 59%
    16:00 +34°C° 0.3 mm 2 mps 740 mmHg 63%
    17:00 +31°C° 0 mm 2 mps 740 mmHg 70%
    18:00 +30°C° 0 mm 2 mps 740 mmHg 76%
    19:00 +28°C° 0 mm 2 mps 741 mmHg 83%
    20:00 +28°C° 0 mm 1 mps 741 mmHg 86%
    21:00 +27°C° 0 mm 1 mps 742 mmHg 88%
    22:00 +27°C° 0 mm 1 mps 743 mmHg 90%
    23:00 +26°C° 0 mm 1 mps 743 mmHg 92%

    22 September, Saturday

    Time Temperature Precipitation Wind Pressure Humidity
    00:00 +26°C° 0 mm 1 mps 742 mmHg 93%
    01:00 +25°C° 0 mm 1 mps 742 mmHg 95%
    02:00 +25°C° 0 mm 1 mps 742 mmHg 96%
    03:00 +25°C° 0 mm 1 mps 742 mmHg 96%
    04:00 +24°C° 0 mm 1 mps 742 mmHg 97%
    05:00 +25°C° 0 mm 1 mps 742 mmHg 95%
    06:00 +25°C° 0 mm 1 mps 743 mmHg 92%
    07:00 +26°C° 0 mm 1 mps 743 mmHg 90%
    08:00 +28°C° 0 mm 1 mps 743 mmHg 78%
    09:00 +31°C° 0 mm 1 mps 744 mmHg 66%
    10:00 +33°C° 0 mm 1 mps 744 mmHg 54%
    11:00 +34°C° 0 mm 1 mps 743 mmHg 50%
    12:00 +35°C° 0 mm 1 mps 742 mmHg 46%
    13:00 +37°C° 0 mm 1 mps 742 mmHg 41%
    14:00 +36°C° 0.3 mm 2 mps 741 mmHg 48%
    15:00 +35°C° 0.3 mm 2 mps 741 mmHg 54%
    16:00 +34°C° 0.3 mm 2 mps 740 mmHg 61%
    17:00 +31°C° 0 mm 2 mps 741 mmHg 68%
    18:00 +30°C° 0 mm 2 mps 741 mmHg 75%
    19:00 +28°C° 0 mm 2 mps 742 mmHg 81%
    20:00 +27°C° 0 mm 1 mps 742 mmHg 84%
    21:00 +27°C° 0 mm 1 mps 743 mmHg 86%
    22:00 +26°C° 0 mm 1 mps 743 mmHg 88%
    23:00 +26°C° 0 mm 1 mps 743 mmHg 89%

    23 September, Sunday

    Time Temperature Precipitation Wind Pressure Humidity
    00:00 +26°C° 0 mm 1 mps 743 mmHg 90%
    01:00 +25°C° 0 mm 1 mps 742 mmHg 91%
    02:00 +25°C° 0 mm 1 mps 742 mmHg 91%
    03:00 +25°C° 0 mm 1 mps 742 mmHg 92%
    04:00 +25°C° 0 mm 1 mps 742 mmHg 92%
    05:00 +25°C° 0.2 mm 1 mps 743 mmHg 90%
    06:00 +26°C° 0.2 mm 1 mps 743 mmHg 88%
    07:00 +26°C° 0.2 mm 1 mps 743 mmHg 86%
    08:00 +29°C° 0.2 mm 1 mps 744 mmHg 77%
    09:00 +31°C° 0.2 mm 1 mps 744 mmHg 67%
    10:00 +34°C° 0.2 mm 1 mps 744 mmHg 58%
    11:00 +34°C° 1.1 mm 1 mps 743 mmHg 61%
    12:00 +34°C° 1.1 mm 1 mps 742 mmHg 65%
    13:00 +34°C° 1.1 mm 1 mps 742 mmHg 68%
    14:00 +33°C° 2.3 mm 1 mps 741 mmHg 73%
    15:00 +32°C° 2.3 mm 1 mps 741 mmHg 77%
    16:00 +31°C° 2.3 mm 1 mps 741 mmHg 82%
    17:00 +30°C° 1.1 mm 1 mps 741 mmHg 86%
    18:00 +28°C° 1.1 mm 1 mps 741 mmHg 89%
    19:00 +27°C° 1.1 mm 1 mps 742 mmHg 92%
    20:00 +27°C° 0.1 mm 1 mps 742 mmHg 93%
    21:00 +26°C° 0.1 mm 1 mps 743 mmHg 94%
    22:00 +26°C° 0.1 mm 1 mps 743 mmHg 95%
    23:00 +26°C° 0.2 mm 1 mps 743 mmHg 96%
    Show more